This is the latest recevied weather packets stored in our database for station/object K7KAZ. If no packets are shown the sender has not sent any weather packets the latest 10 day(s).
| Time | Temp. | Humidity | Pressure | Rain* | Wind** | Luminosity | Snow |
|---|---|---|---|---|---|---|---|
| 1777864153 | 28.89° C | 20% | 1011.2 hPa | 0 mm | - | 0 W/m² | - |
| 1777863850 | 28.89° C | 19% | 1010.6 hPa | 0 mm | - | 0 W/m² | - |
| 1777863546 | 28.89° C | 19% | 1010.8 hPa | 0 mm | - | 0 W/m² | - |
| 1777863243 | 28.89° C | 20% | 1010.6 hPa | 0 mm | - | 0 W/m² | - |
| 1777862940 | 29.44° C | 20% | 1010.4 hPa | 0 mm | - | 0 W/m² | - |
| 1777862636 | 29.44° C | 20% | 1010.5 hPa | 0 mm | - | 0 W/m² | - |
| 1777862334 | 29.44° C | 21% | 1010.3 hPa | 0 mm | - | 0 W/m² | - |
| 1777862030 | 29.44° C | 21% | 1010.1 hPa | 0 mm | - | 0 W/m² | - |
| 1777861725 | 29.44° C | 21% | 1010 hPa | 0 mm | - | 0 W/m² | - |
| 1777861423 | 29.44° C | 20% | 1010.1 hPa | 0 mm | - | 0 W/m² | - |
| 1777861119 | 30° C | 21% | 1010.2 hPa | 0 mm | - | 0 W/m² | - |
| 1777860817 | 30° C | 21% | 1009.9 hPa | 0 mm | - | 0 W/m² | - |
| 1777860514 | 30° C | 21% | 1009.8 hPa | 0 mm | - | 1 W/m² | - |
| 1777860211 | 30° C | 21% | 1009.8 hPa | 0 mm | - | 5 W/m² | - |
| 1777859907 | 30° C | 21% | 1009.5 hPa | 0 mm | - | 9 W/m² | - |
| 1777859603 | 30.56° C | 21% | 1009.7 hPa | 0 mm | - | 16 W/m² | - |
| 1777859299 | 30.56° C | 20% | 1009.4 hPa | 0 mm | - | 22 W/m² | - |
| 1777858995 | 30.56° C | 19% | 1009.4 hPa | 0 mm | - | 31 W/m² | - |
| 1777858694 | 30.56° C | 19% | 1009.4 hPa | 0 mm | - | 28 W/m² | - |
| 1777858391 | 31.11° C | 19% | 1009.3 hPa | 0 mm | - | 34 W/m² | - |
| 1777858087 | 31.11° C | 19% | 1009.3 hPa | 0 mm | - | 33 W/m² | - |
| 1777857785 | 31.67° C | 19% | 1009.4 hPa | 0 mm | - | 48 W/m² | - |
| 1777857482 | 31.67° C | 18% | 1009.3 hPa | 0 mm | - | 73 W/m² | - |
| 1777857178 | 31.67° C | 18% | 1009.4 hPa | 0 mm | - | 81 W/m² | - |
| 1777856874 | 32.22° C | 18% | 1009.3 hPa | 0 mm | - | 93 W/m² | - |
* Rain latest hour (hover to see other rain measurements)
** Current wind speed in m/s (hover to see current wind gust speed)